This is the latest recevied weather packets stored in our database for station/object F1ZUI-13. If no packets are shown the sender has not sent any weather packets the latest 1 day(s).
| Time | Temp. | Humidity | Pressure | Rain* | Wind** | Luminosity | Snow |
|---|---|---|---|---|---|---|---|
| 1778053769 | 13.89° C | - | 1014.5 hPa | - | 4.47 m/s, 225° | - | - |
| 1778053155 | 14.44° C | - | 1014.4 hPa | - | 4.02 m/s, 270° | - | - |
| 1778052541 | 11.11° C | - | 1014.2 hPa | - | 4.02 m/s, 225° | - | - |
| 1778051928 | 10.56° C | - | 1014.4 hPa | - | 4.47 m/s, 225° | - | - |
| 1778051314 | 12.78° C | - | 1014.3 hPa | - | 4.02 m/s, 225° | - | - |
| 1778050701 | 10.56° C | - | 1014.1 hPa | - | 4.92 m/s, 270° | - | - |
| 1778050087 | 8.89° C | - | 1014 hPa | - | 5.36 m/s, 270° | - | - |
| 1778049474 | 9.44° C | - | 1014.2 hPa | - | 8.05 m/s, 225° | - | - |
| 1778048860 | 8.33° C | - | 1014.1 hPa | - | 4.92 m/s, 270° | - | - |
| 1778048246 | 7.78° C | - | 1014 hPa | - | 4.47 m/s, 270° | - | - |
| 1778047632 | 8.33° C | - | 1013.9 hPa | - | 4.92 m/s, 270° | - | - |
| 1778047019 | 8.33° C | - | 1013.9 hPa | - | 4.02 m/s, 225° | - | - |
| 1778046405 | 8.33° C | - | 1013.8 hPa | - | 4.92 m/s, 225° | - | - |
| 1778045792 | 7.78° C | - | 1013.6 hPa | - | 7.15 m/s, 225° | - | - |
| 1778045178 | 7.78° C | - | 1013.6 hPa | - | 4.47 m/s, 270° | - | - |
| 1778044564 | 7.78° C | - | 1013.5 hPa | - | 4.02 m/s, 270° | - | - |
| 1778043951 | 7.22° C | - | 1013.7 hPa | - | 4.47 m/s, 270° | - | - |
| 1778043337 | 7.22° C | - | 1013.5 hPa | - | 6.26 m/s, 225° | - | - |
| 1778042698 | 7.22° C | - | 1013.5 hPa | - | 5.36 m/s, 270° | - | - |
| 1778042085 | 7.22° C | - | 1013.5 hPa | - | 4.02 m/s, 270° | - | - |
| 1778041471 | 7.78° C | - | 1013.5 hPa | - | 3.58 m/s, 270° | - | - |
| 1778040858 | 7.22° C | - | 1013.5 hPa | - | 3.58 m/s, 225° | - | - |
| 1778040244 | 6.11° C | - | 1013.5 hPa | - | 3.13 m/s, 270° | - | - |
| 1778038007 | 7.22° C | - | 1013.8 hPa | - | 3.13 m/s, 270° | - | - |
| 1778037393 | 7.22° C | - | 1013.7 hPa | - | 6.26 m/s, 270° | - | - |
* Rain since midnight (hover to see other rain measurements)
** Current wind speed in m/s (hover to see current wind gust speed)